Regional Weather Roundup
Issued by NWS Northern Indiana

Home | Current Version | Previous Version | Text Only | Print | Product List | Glossary Off
Versions: 1 2 3 4 5 6 7 8 9 10 11 12 13 14 15 16 17 18 19 20 21 22 23 24 25 26 27 28 29 30 31 32 33 34 35 36 37 38 39 40 41 42 43 44 45 46 47 48 49 50

000
ASUS43 KIWX 251800
RWRIWX

KIWX WEATHER ROUNDUP
NATIONAL WEATHER SERVICE NORTHERN INDIANA
200 PM EDT MON MAY 25 2015

NOTE: "FAIR" INDICATES FEW OR NO CLOUDS BELOW 12,000 FEET WITH NO
SIGNIFICANT WEATHER AND/OR OBSTRUCTIONS TO VISIBILITY.

* THESE STATIONS ARE NOT UNDER NWS QUALITY CONTROL. THEY ALSO MAY NOT
  REPORT WEATHER SUCH AS PRECIPITATION OR FOG.

INZ001>027-251900-
NORTHERN INDIANA

CITY           SKY/WX    TMP DP  RH WIND       PRES   REMARKS
GARY*          PTSUNNY   77  63  61 SW23G39   29.91R
SOUTH BEND     PTSUNNY   73  66  78 SW18G31   29.94R
6HR MIN TEMP:  70; 6HR MAX TEMP:  80; 6HR PCP:  0.09;

ELKHART*       PTSUNNY   77  59  53 SW21G31   29.94S
GOSHEN         CLOUDY    78  63  59 SW26G37   29.94F
6HR MIN TEMP:  71; 6HR MAX TEMP:  79; 6HR PCP: TRACE;

WARSAW*        PTSUNNY   77  63  61 SW10G17   29.97F
ANGOLA*        PTSUNNY   75  66  73 SW20      29.97F
FORT WAYNE     CLOUDY    77  64  64 SW29G37   30.02F
6HR MIN TEMP:  69; 6HR MAX TEMP:  78; 6HR PCP: TRACE;


$$
INZ028>050-251900-
CENTRAL INDIANA

CITY           SKY/WX    TMP DP  RH WIND       PRES   REMARKS
LAFAYETTE      MOSUNNY   77  63  61 SW17G29   29.99S
6HR MIN TEMP:  70; 6HR MAX TEMP:  79; 6HR PCP: TRACE;

KOKOMO*        PTSUNNY   79  64  61 SW28G38   30.02F
6HR MIN TEMP:  70; 6HR MAX TEMP:  79;

MUNCIE*        CLOUDY    74  65  73 SW18G29   30.06F
6HR MIN TEMP:  70; 6HR MAX TEMP:  74; 6HR PCP: TRACE;

INDIANAPOLIS   PTSUNNY   75  65  70 S21G29    30.06S
6HR MIN TEMP:  69; 6HR MAX TEMP:  75; 6HR PCP:  0.01;


$$
MIZ043>046-050>051-056>058-064>065-071>073-077>080-251900-
SOUTHWEST LOWER MICHIGAN

CITY           SKY/WX    TMP DP  RH WIND       PRES   REMARKS
BATTLE CREEK   PTSUNNY   79  62  56 S24G33    29.92F
6HR MIN TEMP:  71; 6HR MAX TEMP:  79; 6HR PCP: TRACE;

BENTON HARBOR  PTSUNNY   70  64  81 W15       29.91S
6HR MIN TEMP:  67; 6HR MAX TEMP:  76; 6HR PCP:  0.04;

COLDWATER*     PTSUNNY   77  63  62 SW17G32   29.96F
6HR MIN TEMP:  69; 6HR MAX TEMP:  77;

HILLSDALE*     PTSUNNY   76  68  78 SW17G25   29.99F
6HR MIN TEMP:  69; 6HR MAX TEMP:  77;

HOLLAND        PTSUNNY   70  62  76 SW30G36   29.91R
6HR MIN TEMP:  69; 6HR MAX TEMP:  78; 6HR PCP: TRACE;

GRAND RAPIDS   LGT RAIN  70  67  90 SW17G31   29.90R
6HR MIN TEMP:  69; 6HR MAX TEMP:  77; 6HR PCP:  0.08;

KALAMAZOO      PTSUNNY   80  61  52 SW24G33   29.91F
6HR MIN TEMP:  71; 6HR MAX TEMP:  81; 6HR PCP: TRACE;

STURGIS*       PTSUNNY   79  64  61 SW24G37   29.94F
THREE RIVERS*  PTSUNNY   78  62  59 S22       29.93S
6HR MIN TEMP:  70; 6HR MAX TEMP:  78;


$$
OHZ001>008-015>018-024>025-251900-
NORTHWEST OHIO

CITY           SKY/WX    TMP DP  RH WIND       PRES   REMARKS
DEFIANCE       CLOUDY    79  64  60 S23G35    30.01S
6HR MIN TEMP:  70; 6HR MAX TEMP:  79; 6HR PCP: TRACE;

FINDLAY        CLOUDY    77  63  61 SW22G35   30.05S
6HR MIN TEMP:  73; 6HR MAX TEMP:  80; 6HR PCP: TRACE;

TOLEDO EXPRESS LGT RAIN  77  62  59 SW18G29   30.00F
6HR MIN TEMP:  70; 6HR MAX TEMP:  80; 6HR PCP: TRACE;

TOLEDO METCALF PTSUNNY   80  60  50 SW25G35   30.01F
6HR MIN TEMP:  72; 6HR MAX TEMP:  82;

LIMA           CLOUDY    72  62  71 SW21G30   30.08R
6HR MIN TEMP:  70; 6HR MAX TEMP:  75; 6HR PCP: TRACE;


$$
AND FOR LAKE MICHIGAN COASTAL AND OPEN LAKE BUOY OBSERVATIONS

STATION/POSITION TEMP    WIND        PRES    VSBY  WAVE
                 AIR SEA DIR/SP/G                  HT/PER
                 (F)     (DEG/KT/KT) (MB)    (MI)  (FT/S)
CALUMET HARBOR    68     220/ 11/ 25   N/A
MICHIGAN CITY     74     200/ 21/ 29   N/A
BURNS HARBOR      74     230/ 20/ 34 1013.2S
SAINT JOSEPH      62     180/  7/ 16 1013.9S
SOUTH LAKE BUOY   48 38  200/ 14/ 16 1012.0R         2/ 4
4 MI NW BRIDGMAN  58 54  270/  8/  8   N/A           3/ 4
MICHIGAN CITY     65 52  250/ 14/ 17   N/A           3/ 4

$$
&&


USA.gov is the U.S. government's official web portal to all federal, state and local government web resources and services.